Weather History for Mullan Pass, ID

Change the Weather History Date:

Saturday, November 5, 2011

  Actual Average (K3TH) Record (K3TH)
Temperature  
Mean Temperature 21 °F -  
Max Temperature 25 °F 43 °F 53 °F (1997)
Min Temperature 17 °F 31 °F 28 °F (1999)
Degree Days  
Heating Degree Days 44    
Moisture  
Dew Point 19 °F    
Average Humidity 84    
Maximum Humidity 93    
Minimum Humidity 77    
Precipitation  
Precipitation 0.00 in - - ()
Sea Level Pressure  
Sea Level Pressure 29.69 in    
Wind  
Wind Speed 4 mph (WNW)    
Max Wind Speed 7 mph    
Max Gust Speed -    
Visibility 2 miles    
Events Fog , Snow    
Averages and records for this station are not official NWS values.
T = Trace of Precipitation, MM = Missing Value Source: NWS Daily Summary

Daily Weather History Graph

Daily Weather History Graph

Search for Another Location

Airport:

Trip Planner

Search our weather history database for the weather conditions in past years. The results will help you decide how hot, cold, wet, or windy it might be!

Date:

Astronomy

Nov. 05, 2011 Rise Set
Actual Time 7:32 AM PDT 5:19 PM PDT
Civil Twilight 6:59 AM PDT 5:52 PM PDT
Nautical Twilight 6:23 AM PDT 6:28 PM PDT
Astronomical Twilight 5:47 AM PDT 7:04 PM PDT
Moon 2:55 PM PDT (11/5) 2:28 AM PDT (11/5)
Length of Visible Light 10h 52m
Length of Day
9h 47m
Waxing Gibbous, 79% of the Moon is Illuminated
Nov 5
Waxing Gibbous
Nov 10
Full
Nov 18
Last Quarter
Nov 24
New
Dec 2
First Quarter

Hourly Weather History & Observations

Time (PDT) Temp. Windchill Dew Point Humidity Pressure Visibility Wind Dir Wind Speed Gust Speed Precip Events Conditions
12:01 AM 24.8 °F 17.9 °F 21.2 °F 86% 29.62 in 2.5 mi Variable 5.8 mph - 0.00 in   Overcast
12:11 AM 24.8 °F 16.9 °F 21.2 °F 86% 29.63 in 4.0 mi Variable 6.9 mph - 0.00 in   Overcast
12:53 AM 24.1 °F 18.2 °F 19.9 °F 84% 29.73 in 3.0 mi Variable 4.6 mph - 0.00 in Snow Light Snow
1:07 AM 24.8 °F 17.9 °F 19.4 °F 80% 29.63 in 1.8 mi NW 5.8 mph - 0.00 in Snow Light Snow
1:15 AM 24.8 °F 17.9 °F 19.4 °F 80% 29.63 in 0.8 mi Variable 5.8 mph - 0.00 in Snow Light Snow
1:53 AM 24.1 °F 17.0 °F 19.9 °F 84% 29.72 in 1.0 mi Variable 5.8 mph - 0.00 in   Mist
2:49 AM 23.0 °F 14.7 °F 19.4 °F 86% 29.61 in 1.2 mi Variable 6.9 mph - N/A   Overcast
2:53 AM 23.0 °F 14.7 °F 19.0 °F 85% 29.72 in 1.8 mi Variable 6.9 mph - N/A   Overcast
3:14 AM 23.0 °F 17.0 °F 19.4 °F 86% 29.61 in 2.5 mi Variable 4.6 mph - N/A   Overcast
3:21 AM 23.0 °F 15.8 °F 19.4 °F 86% 29.61 in 4.0 mi Variable 5.8 mph - N/A   Overcast
3:28 AM 23.0 °F 15.8 °F 19.4 °F 86% 29.61 in 1.8 mi Variable 5.8 mph - N/A   Overcast
3:51 AM 23.0 °F 17.0 °F 19.4 °F 86% 29.61 in 1.0 mi Variable 4.6 mph - N/A   Mist
3:53 AM 23.0 °F 15.8 °F 19.0 °F 85% 29.71 in 0.8 mi Variable 5.8 mph - N/A   Mist
4:10 AM 23.0 °F 15.8 °F 19.4 °F 86% 29.60 in 1.2 mi Variable 5.8 mph - N/A   Overcast
4:25 AM 23.0 °F 17.0 °F 19.4 °F 86% 29.60 in 0.8 mi Variable 4.6 mph - N/A   Mist
4:38 AM 23.0 °F 15.8 °F 19.4 °F 86% 29.60 in 1.2 mi Variable 5.8 mph - N/A   Overcast
5:12 AM 23.0 °F 17.0 °F 19.4 °F 86% 29.60 in 0.5 mi Variable 4.6 mph - N/A Fog Light Freezing Fog
6:36 AM 21.2 °F 12.6 °F 17.6 °F 86% 29.62 in 1.0 mi NNW 6.9 mph - N/A   Mist
6:53 AM 21.9 °F 14.5 °F 18.0 °F 85% 29.73 in 1.0 mi NNW 5.8 mph - N/A   Mist
7:09 AM 21.2 °F 14.9 °F 17.6 °F 86% 29.62 in 0.8 mi Variable 4.6 mph - N/A   Mist
7:19 AM 21.2 °F 14.9 °F 17.6 °F 86% 29.63 in 1.0 mi Variable 4.6 mph - N/A   Mist
7:50 AM 21.2 °F 12.6 °F 17.6 °F 86% 29.63 in 0.5 mi Variable 6.9 mph - N/A Fog Light Freezing Fog
7:53 AM 21.9 °F 17.2 °F 18.0 °F 85% 29.75 in 0.8 mi Variable 3.5 mph - N/A   Mist
8:05 AM 21.2 °F 16.4 °F 17.6 °F 86% 29.63 in 0.2 mi NNW 3.5 mph - N/A Fog Light Freezing Fog
9:51 AM 24.8 °F - 19.4 °F 80% 29.65 in 0.5 mi Calm Calm - 0.00 in Snow Snow
9:53 AM 24.1 °F - 19.0 °F 81% 29.76 in 0.2 mi Calm Calm - 0.00 in Snow Heavy Snow
10:53 AM 24.1 °F - 18.0 °F 77% 29.77 in 0.2 mi Calm Calm - 0.00 in   Haze
11:00 AM 24.8 °F 20.5 °F 19.4 °F 80% 29.66 in 0.5 mi NNW 3.5 mph - N/A   Haze
11:27 AM 24.8 °F - 19.4 °F 80% 29.66 in 0.5 mi Calm Calm - N/A   Haze
11:42 AM 24.8 °F 19.1 °F 19.4 °F 80% 29.66 in 1.5 mi Variable 4.6 mph - N/A   Haze
11:53 AM 24.1 °F - 19.0 °F 81% 29.78 in 1.2 mi Calm Calm - N/A   Haze
11:56 AM 24.8 °F 20.5 °F 19.4 °F 80% 29.66 in 2.0 mi Variable 3.5 mph - N/A   Haze
12:16 PM 24.8 °F - 19.4 °F 80% 29.66 in 10.0 mi Calm Calm - N/A   Overcast
12:44 PM 23.0 °F 18.4 °F 19.4 °F 86% 29.66 in 3.0 mi Variable 3.5 mph - N/A   Overcast
12:48 PM 24.8 °F 19.1 °F 19.4 °F 80% 29.66 in 1.5 mi NW 4.6 mph - N/A   Haze
12:53 PM 23.0 °F 18.4 °F 19.0 °F 85% 29.78 in 0.5 mi Variable 3.5 mph - N/A Fog Light Freezing Fog
1:02 PM 23.0 °F - 19.4 °F 86% 29.66 in 0.2 mi Calm Calm - N/A Fog Light Freezing Fog
1:20 PM 24.8 °F - 19.4 °F 80% 29.66 in 0.5 mi Calm Calm - N/A Fog Light Freezing Fog
1:27 PM 24.8 °F - 19.4 °F 80% 29.66 in 0.2 mi Calm Calm - N/A Fog Light Freezing Fog
1:50 PM 24.8 °F - 19.4 °F 80% 29.66 in 0.8 mi Calm Calm - N/A   Mist
1:53 PM 24.1 °F 18.2 °F 19.9 °F 84% 29.78 in 0.8 mi NW 4.6 mph - N/A   Mist
2:01 PM 24.8 °F - 19.4 °F 80% 29.66 in 2.0 mi Calm Calm - N/A   Haze
2:09 PM 24.8 °F 20.5 °F 19.4 °F 80% 29.66 in 4.0 mi Variable 3.5 mph - N/A   Haze
2:53 PM 23.0 °F - 19.0 °F 85% 29.79 in 5.0 mi Calm Calm - N/A   Overcast
3:13 PM 23.0 °F 18.4 °F 19.4 °F 86% 29.67 in 5.0 mi NNW 3.5 mph - N/A   Overcast
3:37 PM 23.0 °F - 17.6 °F 80% 29.67 in 4.0 mi Calm Calm - 0.00 in Snow Light Snow
3:53 PM 23.0 °F - 19.0 °F 85% 29.80 in 3.0 mi Calm Calm - 0.00 in Snow Light Snow
3:57 PM 23.0 °F 18.4 °F 19.4 °F 86% 29.67 in 1.8 mi NW 3.5 mph - 0.00 in Snow Light Snow
4:00 PM 23.0 °F - 19.4 °F 86% 29.67 in 1.2 mi Calm Calm - 0.00 in Snow Light Snow
4:09 PM 23.0 °F 18.4 °F 19.4 °F 86% 29.68 in 0.5 mi Variable 3.5 mph - 0.00 in Fog , Snow Light Snow
4:23 PM 21.2 °F 14.9 °F 19.4 °F 93% 29.68 in 0.2 mi Variable 4.6 mph - 0.00 in Fog Light Freezing Fog
4:39 PM 21.2 °F - 19.4 °F 93% 29.68 in 0.5 mi Calm Calm - 0.00 in Fog Light Freezing Fog
4:51 PM 21.2 °F - 19.4 °F 93% 29.69 in 1.5 mi Calm Calm - 0.00 in   Overcast
4:53 PM 21.9 °F - 19.0 °F 89% 29.82 in 2.0 mi Calm Calm - 0.00 in   Overcast
4:57 PM 21.2 °F 16.4 °F 19.4 °F 93% 29.69 in 1.2 mi Variable 3.5 mph - N/A   Overcast
5:33 PM 21.2 °F 16.4 °F 17.6 °F 86% 29.69 in 1.5 mi Variable 3.5 mph - N/A   Overcast
5:51 PM 21.2 °F - 17.6 °F 86% 29.69 in 3.0 mi Calm Calm - N/A   Overcast
5:53 PM 21.0 °F - 17.1 °F 85% 29.83 in 3.0 mi Calm Calm - N/A   Overcast
6:53 PM 21.0 °F - 17.1 °F 85% 29.84 in 3.0 mi Calm Calm - N/A   Overcast
7:16 PM 19.4 °F 12.8 °F 15.8 °F 86% 29.70 in 8.0 mi SW 4.6 mph - N/A   Scattered Clouds
7:53 PM 19.0 °F 13.9 °F 15.1 °F 85% 29.85 in 7.0 mi SW 3.5 mph - N/A   Clear
8:53 PM 18.0 °F - 14.0 °F 84% 29.86 in 10.0 mi Calm Calm - N/A   Clear
9:53 PM 18.0 °F 11.1 °F 14.0 °F 84% 29.86 in 10.0 mi SW 4.6 mph - N/A   Clear
10:53 PM 18.0 °F 9.8 °F 14.0 °F 84% 29.85 in 10.0 mi SW 5.8 mph - N/A   Clear
11:53 PM 17.1 °F 8.7 °F 12.9 °F 84% 29.85 in 10.0 mi SW 5.8 mph - N/A   Clear